Hourly Weather Roundup
Issued by NWS Central Illinois

Home | Current Version | Previous Version | Text Only | Print | Product List | Glossary On
Versions: 1 2 3 4 5 6 7 8 9 10 11 12 13 14 15 16 17 18 19 20 21 22 23 24 25 26 27 28 29 30 31 32 33 34 35 36 37 38 39 40 41 42 43 44 45 46 47 48 49 50
000
NZUS43 KILX 020210
HWRILX

AREA WEATHER ROUNDUP
NATIONAL WEATHER SERVICE, LINCOLN IL
900 PM CDT SAT AUG 01 2015


CITY           SKY/WX    TMP DP  RH WIND       PRES   REMARKS
BLOOMINGTON    MOCLDY    77  64  63 SW9       29.97S
CHAMPAIGN      PTCLDY    70  65  84 SW6       29.97S
DANVILLE       CLEAR     67  65  96 CALM      29.94S
DECATUR        PTCLDY    75  62  64 SW6       29.97S
EFFINGHAM      PTCLDY    72  65  78 CALM      29.99S
FLORA          PTCLDY    71  66  87 CALM      29.98S
GALESBURG      MOCLDY    73  69  87 CALM      29.94S
JACKSONVILLE   PTCLDY    76  69  80 S3        29.95F
LACON          MOCLDY    75  65  71 SW3       29.93S
LAWRENCEVILLE  PTCLDY    72  65  78 SW3       29.98S
LITCHFIELD     PTCLDY    73  66  80 CALM      29.98R
$$


CITY           SKY/WX    TMP DP  RH WIND       PRES   REMARKS
LINCOLN        MOCLDY    76  64  67 CALM      29.95S
MACOMB         MOCLDY    74  71  90 S6        29.96S
MATTOON        PTCLDY    74  63  68 SW3       29.97S
MT CARMEL AP   PTCLDY    73  64  73 CALM      29.98S
OLNEY-NOBLE AP PTCLDY    70  64  83 CALM      29.98S
PARIS          CLEAR     69  65  90 SW3       29.99R
PEORIA         MOCLDY    79  64  60 W3        29.94F HX  81
PONTIAC        PTCLDY    73  69  87 CALM      29.95S
RANTOUL        PTCLDY    73  68  82 SW5       29.96S
ROBINSON       PTCLDY    69  65  88 CALM      29.98S
SPRINGFIELD    PTCLDY    77  65  66 SW5       29.96S
TAYLORVILLE    PTCLDY    70  66  88 S3        29.97S
$$

...REGIONAL REPORTS...


CITY           SKY/WX    TMP DP  RH WIND       PRES   REMARKS
CHICAGO O`HARE MOCLDY    79  62  56 W10       29.90R HX  80
KANKAKEE       MOCLDY    72  67  84 CALM      29.94S
MOLINE         MOCLDY    77  68  73 S3        29.91S
MOUNT STERLING NOT AVBL
MOUNT VERNON   MOCLDY    72  63  73 CALM      29.99R
PITTSFIELD     PTCLDY    76  71  85 S3        29.97S
QUINCY         PTCLDY    79  71  76 SE6       29.94F HX  82
ROCKFORD       PTCLDY    74  65  73 S6        29.91S
$$


CITY           SKY/WX    TMP DP  RH WIND       PRES   REMARKS
BURLINGTON     PTCLDY    77  74  90 S5        29.92F
CEDAR RAPIDS   PTCLDY    74  72  93 SE5       29.90F
DES MOINES     PTCLDY    80  72  76 S7        29.89F HX  84
KIRKSVILLE     MOCLDY    73  63  70 W5        29.97S
OTTUMWA        PTCLDY    75  72  90 S5        29.90F
ST LOUIS       CLOUDY    86  69  56 S3        29.97R HX  90
$$


CITY           SKY/WX    TMP DP  RH WIND       PRES   REMARKS
TERRE HAUTE    CLEAR     68  63  84 CALM      29.97F
EVANSVILLE     CLEAR     75  62  64 CALM      29.98F
INDIANAPOLIS   PTCLDY    72  59  63 SW7       29.98R
LAFAYETTE      MOCLDY    71  64  78 W5        29.96R
MADISON        PTCLDY    72  62  71 SW3       29.87S
MILWAUKEE      PTCLDY    74  59  59 S6        29.88R
$$




USA.gov is the U.S. government's official web portal to all federal, state and local government web resources and services.